DW0479 Weather Reports


Display with metric or nautical units.
time (UTC)temp
F
wind
direction
speed
MPH
gust
MPH
rain 1hr
in
rain 24hr
in
rain mn
in
humidity
%
barometer
mb
20260905190937 92 300 4.0 11.0 0.00 0.18 0.01 64 1012.5
20260905185938 95 223 3.0 13.0 0.00 0.18 0.01 60 1012.5
20260905184939 95 264 4.0 10.0 0.00 0.18 0.01 56 1012.4
20260905183929 95 237 5.0 13.0 0.00 0.18 0.01 57 1012.4
20260905183409 95 242 5.0 11.0 0.00 0.18 0.01 57 1012.4
20260905182405 95 230 5.0 11.0 0.00 0.18 0.01 60 1012.6
20260905180931 94 244 3.0 8.0 0.00 0.18 0.01 64 1012.7
20260905175929 95 244 4.0 9.0 0.00 0.18 0.01 61 1012.9
20260905174929 95 293 3.0 7.0 0.00 0.18 0.01 61 1013.1
20260905174410 93 250 4.0 9.0 0.00 0.18 0.01 66 1013.2
20260905172930 92 212 3.0 6.0 0.00 0.18 0.01 63 1013.4
20260905171930 91 278 3.0 7.0 0.00 0.18 0.01 65 1013.6
20260905170926 94 294 4.0 9.0 0.00 0.18 0.01 64 1013.7
20260905170844 92 287 5.0 10.0 0.00 0.18 0.01 64 1013.8
20260905165422 93 216 4.0 9.0 0.00 0.18 0.01 66 1014.0
20260905164413 92 286 4.0 10.0 0.00 0.18 0.01 66 1014.2
20260905162924 91 273 4.0 7.0 0.00 0.18 0.01 68 1014.3
20260905161924 92 253 4.0 11.0 0.00 0.18 0.01 65 1014.4
20260905160925 92 245 4.0 9.0 0.00 0.18 0.01 65 1014.5
20260905155922 91 275 4.0 11.0 0.00 0.18 0.01 67 1014.6
20260905154922 91 232 3.0 10.0 0.00 0.18 0.01 71 1014.7
20260905153924 90 279 4.0 8.0 0.00 0.18 0.01 70 1014.7
20260905152922 91 248 3.0 8.0 0.00 0.18 0.01 69 1014.8
20260905151922 90 232 3.0 9.0 0.00 0.18 0.01 70 1014.9
20260905150925 89 237 3.0 11.0 0.00 0.18 0.01 72 1014.8
20260905145912 89 217 3.0 8.0 0.00 0.18 0.01 76 1014.9
20260905144914 88 237 3.0 7.0 0.00 0.18 0.01 77 1014.9
20260905143912 87 273 2.0 7.0 0.00 0.18 0.01 79 1014.7
20260905142909 87 268 3.0 6.0 0.00 0.18 0.01 80 1014.8
20260905142356 86 206 3.0 7.0 0.00 0.18 0.01 81 1014.7
20260905140909 86 260 2.0 5.0 0.00 0.18 0.01 82 1014.9
20260905135911 85 236 1.0 5.0 0.00 0.18 0.01 86 1014.9
20260905134910 84 237 1.0 5.0 0.00 0.18 0.01 86 1014.9
20260905133911 84 240 1.0 4.0 0.00 0.18 0.01 88 1014.8
20260905132909 83 244 2.0 4.0 0.00 0.18 0.01 90 1014.8
20260905132838 82 256 1.0 4.0 0.00 0.18 0.01 93 1014.8
20260905130859 81 266 1.0 3.0 0.00 0.18 0.01 94 1014.8
20260905125857 81 328 0.0 2.0 0.00 0.18 0.01 94 1014.9
20260905124858 80 329 0.0 2.0 0.00 0.18 0.01 95 1014.8
20260905123857 80 329 0.0 1.0 0.00 0.18 0.01 95 1014.8
20260905123338 79 328 0.0 1.0 0.00 0.18 0.01 95 1014.6
20260905121857 78 329 0.0 0.0 0.00 0.18 0.01 95 1014.6
20260905121339 77 329 0.0 0.0 0.00 0.18 0.01 95 1014.5
20260905115856 77 328 0.0 0.0 0.00 0.18 0.01 95 1014.4
20260905115338 76 329 0.0 0.0 0.00 0.18 0.01 95 1014.5
20260905113853 76 329 0.0 0.0 0.00 0.18 0.01 95 1014.3
20260905112853 75 329 0.0 0.0 0.00 0.18 0.01 95 1014.3
20260905112802 76 329 0.0 1.0 0.00 0.18 0.01 95 1014.2
20260905110851 75 328 0.0 1.0 0.00 0.18 0.01 95 1014.2
20260905105849 75 329 0.0 0.0 0.00 0.18 0.01 95 1014.1
20260905105338 75 329 0.0 0.0 0.00 0.18 0.01 95 1013.9
20260905103845 75 329 0.0 0.0 0.00 0.18 0.01 95 1014.0
20260905102844 75 328 0.0 0.0 0.00 0.18 0.01 95 1013.8
20260905101844 75 329 0.0 0.0 0.00 0.18 0.01 95 1013.8
20260905100846 75 329 0.0 0.0 0.00 0.18 0.01 95 1013.8
20260905095831 75 328 0.0 0.0 0.00 0.18 0.01 95 1013.8
20260905094829 75 329 0.0 0.0 0.00 0.18 0.01 95 1013.8
20260905094752 75 328 0.0 0.0 0.00 0.18 0.01 95 1013.8
20260905092829 75 329 0.0 0.0 0.00 0.18 0.01 95 1013.7
20260905092308 75 328 0.0 0.0 0.01 0.18 0.01 95 1013.8
20260905090828 75 329 0.0 0.0 0.01 0.18 0.01 95 1013.7
20260905085828 76 329 0.0 0.0 0.01 0.18 0.01 95 1013.8
20260905084827 76 328 0.0 0.0 0.01 0.18 0.01 95 1013.7
20260905083829 76 329 0.0 0.0 0.01 0.18 0.01 95 1013.8
20260905082828 76 328 0.0 0.0 0.01 0.18 0.01 95 1013.8
20260905081827 76 329 0.0 1.0 0.00 0.17 0.00 95 1013.7
20260905080828 76 328 0.0 0.0 0.00 0.17 0.00 95 1013.7
20260905075828 76 329 0.0 0.0 0.00 0.17 0.00 95 1013.7
20260905074828 76 329 0.0 0.0 0.00 0.17 0.00 94 1013.6
20260905074309 76 329 0.0 0.0 0.00 0.17 0.00 94 1013.6
20260905072826 76 329 0.0 0.0 0.00 0.17 0.00 94 1013.6
20260905071827 76 329 0.0 0.0 0.00 0.17 0.00 94 1013.8
20260905071747 76 329 0.0 0.0 0.00 0.17 0.00 95 1013.8
20260905065824 76 328 0.0 0.0 0.00 0.17 0.00 94 1014.0
20260905064824 77 329 0.0 0.0 0.00 0.17 0.00 95 1014.0
20260905063813 76 329 0.0 0.0 0.00 0.17 0.00 95 1014.0
20260905062811 77 328 0.0 0.0 0.00 0.17 0.00 95 1014.0
20260905061810 77 329 0.0 0.0 0.00 0.17 0.00 94 1014.1
20260905061246 77 328 0.0 0.0 0.00 0.17 0.00 94 1014.2
20260905055805 77 329 0.0 0.0 0.00 0.17 0.00 94 1014.3
20260905054804 77 328 0.0 0.0 0.00 0.17 0.00 94 1014.4
20260905053803 77 329 0.0 0.0 0.00 0.17 0.00 94 1014.4
20260905052802 77 328 0.0 0.0 0.00 0.17 0.00 94 1014.6
20260905052245 77 329 0.0 1.0 0.00 0.17 0.00 94 1014.6
20260905050801 78 329 0.0 0.0 0.00 0.17 0.00 94 1014.8
20260905045801 78 329 0.0 0.0 0.00 0.17 0.00 94 1014.9
20260905044804 78 329 0.0 0.0 0.00 0.17 0.00 94 1015.0
20260905043801 78 328 0.0 2.0 0.00 0.17 0.00 94 1015.1
20260905043240 78 329 0.0 1.0 0.00 0.17 0.00 94 1015.1
20260905041759 78 329 0.0 1.0 0.00 0.17 0.00 94 1015.1
20260905040757 78 329 0.0 0.0 0.00 0.17 0.00 94 1015.1
20260905035752 78 329 0.0 0.0 0.00 0.17 0.17 94 1015.2
20260905034739 78 329 0.0 0.0 0.00 0.17 0.17 94 1015.1
20260905034222 78 328 0.0 0.0 0.00 0.17 0.17 94 1015.2
20260905032738 78 329 0.0 0.0 0.00 0.17 0.17 94 1015.4
20260905031740 78 329 0.0 0.0 0.00 0.17 0.17 94 1015.5
20260905031216 78 329 0.0 0.0 0.01 0.17 0.17 94 1015.5
20260905025741 78 329 1.0 4.0 0.01 0.17 0.17 94 1015.7
20260905024740 78 328 0.0 3.0 0.01 0.18 0.17 93 1015.6
20260905023740 78 328 0.0 2.0 0.01 0.18 0.17 93 1015.5
20260905022733 78 329 0.0 0.0 0.02 0.18 0.17 93 1015.3
20260905022226 78 329 1.0 3.0 0.02 0.18 0.17 93 1015.3
20260905020732 78 256 1.0 4.0 0.02 0.17 0.17 93 1015.3
20260905020700 78 242 0.0 1.0 0.02 0.17 0.16 93 1015.2
20260905015204 78 242 0.0 2.0 0.02 0.17 0.16 93 1015.1
20260905013725 78 242 0.0 3.0 0.02 0.17 0.16 93 1015.0
20260905012723 78 242 1.0 3.0 0.01 0.16 0.15 92 1015.0
20260905011715 78 242 1.0 4.0 0.01 0.16 0.15 92 1015.0
20260905010716 78 243 1.0 4.0 0.02 0.15 0.14 92 1015.3
20260905005714 78 244 2.0 5.0 0.02 0.15 0.14 91 1015.0
20260905004657 79 270 3.0 9.0 0.02 0.15 0.14 91 1015.0
20260905003656 80 224 4.0 10.0 0.02 0.15 0.14 92 1015.2
20260905002657 80 306 2.0 7.0 0.02 0.15 0.14 92 1015.3
20260905001658 80 160 2.0 8.0 0.02 0.16 0.14 92 1015.1
20260905000642 81 213 0.0 3.0 0.00 0.14 0.12 92 1015.0
20260904235642 81 213 0.0 2.0 0.00 0.15 0.12 91 1015.0
20260904235121 81 213 1.0 3.0 0.00 0.16 0.12 91 1014.8
20260904233643 81 213 1.0 4.0 0.00 0.17 0.12 92 1014.5
20260904232633 80 218 2.0 6.0 0.00 0.17 0.12 91 1014.8
20260904232108 80 208 1.0 7.0 0.00 0.17 0.12 91 1014.8
20260904230631 80 90 2.0 6.0 0.00 0.17 0.12 91 1014.5
20260904225630 81 84 0.0 3.0 0.00 0.17 0.12 91 1014.1
20260904225051 80 15 0.0 3.0 0.00 0.17 0.12 91 1013.8
20260904224715 80 84 1.0 4.0 0.00 0.17 0.12 91 1014.0
20260904222628 80 15 0.0 3.0 0.00 0.17 0.12 92 1014.3
20260904221631 80 10 1.0 4.0 0.00 0.17 0.12 92 1014.1
20260904220631 79 15 0.0 1.0 0.02 0.17 0.12 91 1013.8
20260904215615 79 15 0.0 1.0 0.12 0.17 0.12 91 1013.0
20260904214616 79 15 0.0 3.0 0.12 0.17 0.12 90 1013.1
20260904213615 79 15 5.0 13.0 0.12 0.17 0.12 89 1013.6
20260904212615 79 42 5.0 12.0 0.12 0.17 0.12 90 1014.1
20260904211614 80 10 4.0 10.0 0.12 0.17 0.12 89 1014.5
20260904211055 81 358 4.0 10.0 0.10 0.15 0.10 86 1014.7
20260904205614 83 263 4.0 12.0 0.00 0.05 0.00 82 1014.7
20260904204615 85 200 7.0 16.0 0.00 0.05 0.00 78 1014.1
20260904203614 88 156 7.0 16.0 0.00 0.05 0.00 72 1013.9
20260904202615 92 175 4.0 9.0 0.00 0.05 0.00 65 1013.3
20260904201615 94 249 3.0 8.0 0.00 0.05 0.00 62 1013.2
20260904201051 91 195 5.0 12.0 0.00 0.05 0.00 65 1013.1
20260904195615 92 227 7.0 15.0 0.00 0.05 0.00 63 1013.2
20260904195052 94 190 5.0 10.0 0.00 0.05 0.00 63 1013.5
20260904193610 94 204 4.0 9.0 0.00 0.05 0.00 64 1013.6
20260904192611 91 222 5.0 10.0 0.00 0.05 0.00 67 1013.9
20260904191611 91 263 5.0 10.0 0.00 0.05 0.00 66 1014.1